Time,TemperatureF,DewpointF,PressureIn,WindDirection,WindDirectionDegrees,WindSpeedMPH,WindSpeedGustMPH,Humidity,HourlyPrecipIn,Conditions,Clouds,dailyrainin,SoftwareType,DateUTC
2013-07-29 00:04:00,64.0,63.4,29.94,North,355,0.0,0.0,98,0.00,,,0.00,Wunderground v.1.12,2013-07-29 04:04:00,
2013-07-29 00:05:00,64.0,63.4,29.94,North,355,0.0,0.0,98,0.00,,,0.00,Wunderground v.1.12,2013-07-29 04:05:00,
2013-07-29 00:09:00,64.0,63.4,29.94,North,0,0.0,1.0,98,0.00,,,0.00,Wunderground v.1.12,2013-07-29 04:09:00,
2013-07-29 00:12:00,64.0,63.4,29.94,North,0,0.0,1.0,98,0.00,,,0.00,Wunderground v.1.12,2013-07-29 04:12:00,
2013-07-29 00:19:00,64.0,63.4,29.94,North,355,0.0,0.0,98,0.00,,,0.00,Wunderground v.1.12,2013-07-29 04:19:00,
2013-07-29 00:24:00,64.0,63.4,29.94,North,355,0.0,0.0,98,0.00,,,0.00,Wunderground v.1.12,2013-07-29 04:24:00,
2013-07-29 00:29:00,63.9,63.3,29.94,North,355,0.0,0.0,98,0.00,,,0.00,Wunderground v.1.12,2013-07-29 04:29:00,
2013-07-29 00:34:00,63.9,63.3,29.94,North,355,0.0,0.0,98,0.00,,,0.00,Wunderground v.1.12,2013-07-29 04:34:00,
2013-07-29 00:40:00,64.0,63.4,29.94,North,355,0.0,0.0,98,0.00,,,0.00,Wunderground v.1.12,2013-07-29 04:40:00,
2013-07-29 00:45:00,64.0,63.4,29.94,North,355,0.0,0.0,98,0.00,,,0.00,Wunderground v.1.12,2013-07-29 04:45:00,
2013-07-29 00:51:00,64.0,63.4,29.94,North,355,0.0,0.0,98,0.00,,,0.00,Wunderground v.1.12,2013-07-29 04:51:00,
2013-07-29 00:56:00,64.0,63.4,29.94,North,355,0.0,0.0,98,0.00,,,0.00,Wunderground v.1.12,2013-07-29 04:56:00,
2013-07-29 01:01:00,64.0,63.4,29.94,North,355,0.0,0.0,98,0.00,,,0.00,Wunderground v.1.12,2013-07-29 05:01:00,
2013-07-29 01:06:00,64.0,63.4,29.94,North,355,0.0,0.0,98,0.00,,,0.00,Wunderground v.1.12,2013-07-29 05:06:00,
2013-07-29 01:12:00,64.0,63.4,29.94,North,355,0.0,0.0,98,0.00,,,0.00,Wunderground v.1.12,2013-07-29 05:12:00,
2013-07-29 01:17:00,63.9,63.3,29.94,North,355,0.0,0.0,98,0.00,,,0.00,Wunderground v.1.12,2013-07-29 05:17:00,
2013-07-29 01:23:00,63.9,63.3,29.94,North,355,0.0,0.0,98,0.00,,,0.00,Wunderground v.1.12,2013-07-29 05:23:00,
2013-07-29 01:28:00,63.9,63.3,29.94,North,355,0.0,0.0,98,0.00,,,0.00,Wunderground v.1.12,2013-07-29 05:28:00,
2013-07-29 01:34:00,64.0,63.7,29.94,North,355,0.0,0.0,99,0.00,,,0.00,Wunderground v.1.12,2013-07-29 05:34:00,
2013-07-29 01:39:00,63.9,63.6,29.94,North,355,0.0,0.0,99,0.00,,,0.00,Wunderground v.1.12,2013-07-29 05:39:00,
2013-07-29 01:44:00,63.9,63.6,29.94,North,355,0.0,0.0,99,0.00,,,0.00,Wunderground v.1.12,2013-07-29 05:44:00,
2013-07-29 01:49:00,64.0,63.7,29.93,North,355,0.0,0.0,99,0.00,,,0.00,Wunderground v.1.12,2013-07-29 05:49:00,
2013-07-29 01:55:00,64.0,63.7,29.93,North,355,0.0,0.0,99,0.00,,,0.00,Wunderground v.1.12,2013-07-29 05:55:00,
2013-07-29 02:02:00,64.0,63.7,29.92,North,355,0.0,0.0,99,0.00,,,0.00,Wunderground v.1.12,2013-07-29 06:02:00,
2013-07-29 02:08:00,64.0,63.7,29.92,North,355,0.0,0.0,99,0.00,,,0.00,Wunderground v.1.12,2013-07-29 06:08:00,
2013-07-29 02:14:00,64.2,63.9,29.92,North,355,0.0,0.0,99,0.00,,,0.00,Wunderground v.1.12,2013-07-29 06:14:00,
2013-07-29 02:19:00,64.2,63.9,29.93,North,355,0.0,0.0,99,0.00,,,0.00,Wunderground v.1.12,2013-07-29 06:19:00,
2013-07-29 02:24:00,64.2,63.9,29.93,North,355,0.0,0.0,99,0.00,,,0.00,Wunderground v.1.12,2013-07-29 06:24:00,
2013-07-29 02:29:00,64.2,63.9,29.93,North,355,0.0,0.0,99,0.00,,,0.00,Wunderground v.1.12,2013-07-29 06:29:00,
2013-07-29 02:34:00,64.0,63.7,29.93,North,355,0.0,0.0,99,0.00,,,0.00,Wunderground v.1.12,2013-07-29 06:34:00,
2013-07-29 02:40:00,64.0,63.7,29.93,North,355,0.0,0.0,99,0.00,,,0.00,Wunderground v.1.12,2013-07-29 06:40:00,
2013-07-29 02:46:00,64.0,63.7,29.93,North,355,0.0,0.0,99,0.00,,,0.00,Wunderground v.1.12,2013-07-29 06:46:00,
2013-07-29 02:51:00,64.2,63.9,29.93,North,355,0.0,0.0,99,0.00,,,0.00,Wunderground v.1.12,2013-07-29 06:51:00,
2013-07-29 02:57:00,64.2,63.9,29.93,North,355,0.0,0.0,99,0.00,,,0.00,Wunderground v.1.12,2013-07-29 06:57:00,
2013-07-29 03:02:00,64.2,63.9,29.93,North,355,0.0,0.0,99,0.00,,,0.00,Wunderground v.1.12,2013-07-29 07:02:00,
2013-07-29 03:08:00,64.2,63.9,29.93,North,355,0.0,0.0,99,0.00,,,0.00,Wunderground v.1.12,2013-07-29 07:08:00,
2013-07-29 03:14:00,64.2,63.9,29.93,North,355,0.0,0.0,99,0.00,,,0.00,Wunderground v.1.12,2013-07-29 07:14:00,
2013-07-29 03:19:00,64.2,63.9,29.93,North,355,0.0,0.0,99,0.00,,,0.00,Wunderground v.1.12,2013-07-29 07:19:00,
2013-07-29 03:25:00,64.2,63.9,29.93,North,355,0.0,0.0,99,0.00,,,0.00,Wunderground v.1.12,2013-07-29 07:25:00,
2013-07-29 03:31:00,64.3,64.0,29.93,North,355,0.0,0.0,99,0.00,,,0.00,Wunderground v.1.12,2013-07-29 07:31:00,
2013-07-29 03:37:00,64.2,63.9,29.93,North,355,0.0,0.0,99,0.00,,,0.00,Wunderground v.1.12,2013-07-29 07:37:00,
2013-07-29 03:43:00,64.3,64.0,29.93,North,355,0.0,0.0,99,0.00,,,0.00,Wunderground v.1.12,2013-07-29 07:43:00,
2013-07-29 03:49:00,64.3,64.0,29.91,North,355,0.0,0.0,99,0.00,,,0.00,Wunderground v.1.12,2013-07-29 07:49:00,
2013-07-29 03:54:00,64.3,64.0,29.91,North,355,0.0,0.0,99,0.00,,,0.00,Wunderground v.1.12,2013-07-29 07:54:00,
2013-07-29 04:00:00,64.3,64.0,29.91,North,355,0.0,0.0,99,0.00,,,0.00,Wunderground v.1.12,2013-07-29 08:00:00,
2013-07-29 04:05:00,64.3,64.0,29.92,North,355,0.0,0.0,99,0.00,,,0.00,Wunderground v.1.12,2013-07-29 08:05:00,
2013-07-29 04:11:00,64.3,64.0,29.92,North,355,0.0,0.0,99,0.00,,,0.00,Wunderground v.1.12,2013-07-29 08:11:00,
2013-07-29 04:16:00,64.3,64.0,29.92,North,355,0.0,0.0,99,0.00,,,0.00,Wunderground v.1.12,2013-07-29 08:16:00,
2013-07-29 04:22:00,64.3,64.0,29.93,North,355,0.0,0.0,99,0.00,,,0.00,Wunderground v.1.12,2013-07-29 08:22:00,
2013-07-29 04:28:00,64.3,64.0,29.93,North,355,0.0,0.0,99,0.00,,,0.00,Wunderground v.1.12,2013-07-29 08:28:00,
2013-07-29 04:34:00,64.3,64.0,29.92,N/A,-737280,0.0,0.0,99,0.00,,,0.00,Wunderground v.1.12,2013-07-29 08:34:00,
2013-07-29 04:39:00,64.3,64.0,29.93,North,355,0.0,0.0,99,0.00,,,0.00,Wunderground v.1.12,2013-07-29 08:39:00,
2013-07-29 04:44:00,64.3,64.0,29.93,North,355,0.0,0.0,99,0.00,,,0.00,Wunderground v.1.12,2013-07-29 08:44:00,
2013-07-29 04:49:00,64.3,64.0,29.93,North,355,0.0,0.0,99,0.00,,,0.00,Wunderground v.1.12,2013-07-29 08:49:00,
2013-07-29 04:54:00,64.3,64.0,29.93,North,355,0.0,0.0,99,0.00,,,0.00,Wunderground v.1.12,2013-07-29 08:54:00,
2013-07-29 05:00:00,64.3,64.0,29.93,North,355,0.0,0.0,99,0.00,,,0.00,Wunderground v.1.12,2013-07-29 09:00:00,
2013-07-29 05:05:00,64.3,64.0,29.95,North,355,0.0,0.0,99,0.00,,,0.00,Wunderground v.1.12,2013-07-29 09:05:00,
2013-07-29 05:10:00,64.5,64.2,29.95,North,355,0.0,0.0,99,0.00,,,0.00,Wunderground v.1.12,2013-07-29 09:10:00,
2013-07-29 05:15:00,64.5,64.2,29.95,North,355,0.0,0.0,99,0.00,,,0.00,Wunderground v.1.12,2013-07-29 09:15:00,
2013-07-29 05:21:00,64.5,64.2,29.95,North,355,0.0,0.0,99,0.00,,,0.00,Wunderground v.1.12,2013-07-29 09:21:00,
2013-07-29 05:27:00,64.5,64.2,29.95,North,355,0.0,0.0,99,0.00,,,0.00,Wunderground v.1.12,2013-07-29 09:27:00,
2013-07-29 05:32:00,64.5,64.2,29.94,North,355,0.0,0.0,99,0.00,,,0.00,Wunderground v.1.12,2013-07-29 09:32:00,
2013-07-29 05:37:00,64.5,64.2,29.94,North,355,0.0,0.0,99,0.00,,,0.00,Wunderground v.1.12,2013-07-29 09:37:00,
2013-07-29 05:43:00,64.5,64.2,29.94,North,355,0.0,0.0,99,0.00,,,0.00,Wunderground v.1.12,2013-07-29 09:43:00,
2013-07-29 05:49:00,64.5,64.2,29.95,North,355,0.0,0.0,99,0.00,,,0.00,Wunderground v.1.12,2013-07-29 09:49:00,
2013-07-29 05:54:00,64.5,64.2,29.95,North,355,0.0,0.0,99,0.00,,,0.00,Wunderground v.1.12,2013-07-29 09:54:00,
2013-07-29 05:59:00,64.5,64.2,29.95,North,355,0.0,0.0,99,0.00,,,0.00,Wunderground v.1.12,2013-07-29 09:59:00,
2013-07-29 06:04:00,64.5,64.2,29.94,North,355,0.0,0.0,99,0.00,,,0.00,Wunderground v.1.12,2013-07-29 10:04:00,
2013-07-29 06:10:00,64.7,64.4,29.94,North,355,0.0,0.0,99,0.00,,,0.00,Wunderground v.1.12,2013-07-29 10:10:00,
2013-07-29 06:16:00,64.7,64.4,29.94,North,355,0.0,0.0,99,0.00,,,0.00,Wunderground v.1.12,2013-07-29 10:16:00,
2013-07-29 06:21:00,64.7,64.4,29.95,North,355,0.0,0.0,99,0.00,,,0.00,Wunderground v.1.12,2013-07-29 10:21:00,
2013-07-29 06:28:00,64.7,64.4,29.95,North,355,0.0,0.0,99,0.00,,,0.00,Wunderground v.1.12,2013-07-29 10:28:00,
2013-07-29 06:34:00,64.7,64.4,29.94,N/A,-737280,0.0,0.0,99,0.00,,,0.01,Wunderground v.1.12,2013-07-29 10:34:00,
2013-07-29 06:39:00,64.8,64.5,29.95,North,355,0.0,0.0,99,0.00,,,0.01,Wunderground v.1.12,2013-07-29 10:39:00,
2013-07-29 06:49:00,64.7,64.4,29.95,North,355,0.0,0.0,99,0.00,,,0.01,Wunderground v.1.12,2013-07-29 10:49:00,
2013-07-29 06:54:00,64.7,64.4,29.95,North,355,0.0,0.0,99,0.00,,,0.01,Wunderground v.1.12,2013-07-29 10:54:00,
2013-07-29 06:59:00,64.7,64.4,29.95,North,355,0.0,0.0,99,0.00,,,0.01,Wunderground v.1.12,2013-07-29 10:59:00,
2013-07-29 07:06:00,64.7,64.4,29.95,North,355,0.0,0.0,99,0.00,,,0.01,Wunderground v.1.12,2013-07-29 11:06:00,
2013-07-29 07:11:00,64.7,64.4,29.95,North,355,0.0,0.0,99,0.00,,,0.01,Wunderground v.1.12,2013-07-29 11:11:00,
2013-07-29 07:17:00,64.7,64.4,29.95,North,355,0.0,0.0,99,0.00,,,0.01,Wunderground v.1.12,2013-07-29 11:17:00,
2013-07-29 07:23:00,64.7,64.4,29.95,North,355,0.0,0.0,99,0.00,,,0.01,Wunderground v.1.12,2013-07-29 11:23:00,
2013-07-29 07:32:00,64.8,64.5,29.95,North,5,0.0,0.0,99,0.00,,,0.01,Wunderground v.1.12,2013-07-29 11:32:00,
2013-07-29 07:37:00,64.8,64.5,29.95,North,5,0.0,0.0,99,0.00,,,0.01,Wunderground v.1.12,2013-07-29 11:37:00,
2013-07-29 07:42:00,65.0,64.7,29.95,North,5,0.0,0.0,99,0.00,,,0.01,Wunderground v.1.12,2013-07-29 11:42:00,
2013-07-29 07:47:00,65.0,64.7,29.95,North,5,0.0,0.0,99,0.00,,,0.01,Wunderground v.1.12,2013-07-29 11:47:00,
2013-07-29 07:52:00,65.0,64.7,29.95,North,5,0.0,0.0,99,0.00,,,0.01,Wunderground v.1.12,2013-07-29 11:52:00,
2013-07-29 07:58:00,65.0,64.7,29.95,North,5,0.0,0.0,99,0.00,,,0.01,Wunderground v.1.12,2013-07-29 11:58:00,
2013-07-29 08:04:00,65.0,64.7,29.95,North,5,0.0,0.0,99,0.00,,,0.01,Wunderground v.1.12,2013-07-29 12:04:00,
2013-07-29 08:09:00,65.2,64.9,29.95,North,5,0.0,0.0,99,0.00,,,0.01,Wunderground v.1.12,2013-07-29 12:09:00,
2013-07-29 08:14:00,65.3,65.0,29.95,North,5,0.0,0.0,99,0.00,,,0.01,Wunderground v.1.12,2013-07-29 12:14:00,
2013-07-29 08:20:00,65.5,65.2,29.95,North,5,0.0,0.0,99,0.00,,,0.01,Wunderground v.1.12,2013-07-29 12:20:00,
2013-07-29 08:25:00,65.6,65.3,29.95,North,5,0.0,0.0,99,0.00,,,0.01,Wunderground v.1.12,2013-07-29 12:25:00,
2013-07-29 08:31:00,65.8,65.5,29.95,North,5,0.0,0.0,99,0.00,,,0.01,Wunderground v.1.12,2013-07-29 12:31:00,
2013-07-29 08:36:00,66.0,65.7,29.95,North,5,0.0,0.0,99,0.00,,,0.01,Wunderground v.1.12,2013-07-29 12:36:00,
2013-07-29 08:43:00,66.0,65.7,29.95,North,5,0.0,0.0,99,0.00,,,0.01,Wunderground v.1.12,2013-07-29 12:43:00,
2013-07-29 08:49:00,66.0,65.7,29.96,North,5,0.0,0.0,99,0.00,,,0.01,Wunderground v.1.12,2013-07-29 12:49:00,
2013-07-29 08:54:00,66.0,65.7,29.96,North,5,0.0,0.0,99,0.00,,,0.01,Wunderground v.1.12,2013-07-29 12:54:00,
2013-07-29 09:00:00,66.3,66.0,29.96,North,5,0.0,1.0,99,0.00,,,0.01,Wunderground v.1.12,2013-07-29 13:00:00,
2013-07-29 09:05:00,66.3,66.0,29.95,North,5,0.0,0.0,99,0.00,,,0.01,Wunderground v.1.12,2013-07-29 13:05:00,
2013-07-29 09:12:00,66.6,66.3,29.95,North,5,0.0,0.0,99,0.00,,,0.01,Wunderground v.1.12,2013-07-29 13:12:00,
2013-07-29 09:17:00,66.8,66.5,29.96,North,5,0.0,0.0,99,0.00,,,0.01,Wunderground v.1.12,2013-07-29 13:17:00,
2013-07-29 09:24:00,67.3,67.0,29.96,North,5,0.0,1.0,99,0.00,,,0.01,Wunderground v.1.12,2013-07-29 13:24:00,
2013-07-29 09:29:00,67.4,67.1,29.96,North,5,0.0,0.0,99,0.00,,,0.01,Wunderground v.1.12,2013-07-29 13:29:00,
2013-07-29 09:35:00,67.8,67.5,29.96,North,5,0.0,0.0,99,0.00,,,0.01,Wunderground v.1.12,2013-07-29 13:35:00,
2013-07-29 09:42:00,68.1,67.5,29.96,North,5,0.0,0.0,98,0.00,,,0.01,Wunderground v.1.12,2013-07-29 13:42:00,
2013-07-29 09:49:00,68.3,67.4,29.96,North,5,0.0,0.0,97,0.00,,,0.01,Wunderground v.1.12,2013-07-29 13:49:00,
2013-07-29 09:54:00,68.6,67.7,29.96,North,5,0.0,0.0,97,0.00,,,0.01,Wunderground v.1.12,2013-07-29 13:54:00,
2013-07-29 09:59:00,68.8,67.6,29.96,North,5,0.0,0.0,96,0.00,,,0.01,Wunderground v.1.12,2013-07-29 13:59:00,
2013-07-29 10:04:00,68.9,67.7,29.96,North,5,0.0,1.0,96,0.00,,,0.01,Wunderground v.1.12,2013-07-29 14:04:00,
2013-07-29 10:09:00,68.9,67.4,29.96,North,5,0.0,2.0,95,0.00,,,0.01,Wunderground v.1.12,2013-07-29 14:09:00,
2013-07-29 10:15:00,68.6,66.8,29.96,North,5,0.0,0.0,94,0.00,,,0.01,Wunderground v.1.12,2013-07-29 14:15:00,
2013-07-29 10:22:00,68.8,67.0,29.96,North,5,0.0,0.0,94,0.00,,,0.01,Wunderground v.1.12,2013-07-29 14:22:00,
2013-07-29 10:28:00,69.1,67.0,29.96,North,5,0.0,0.0,93,0.00,,,0.01,Wunderground v.1.12,2013-07-29 14:28:00,
2013-07-29 10:34:00,69.4,67.3,29.96,North,5,0.0,0.0,93,0.00,,,0.01,Wunderground v.1.12,2013-07-29 14:34:00,
2013-07-29 10:41:00,69.1,66.4,29.96,NNE,13,0.0,1.0,91,0.00,,,0.01,Wunderground v.1.12,2013-07-29 14:41:00,
2013-07-29 10:46:00,69.4,67.0,29.96,NNE,13,0.0,0.0,92,0.00,,,0.01,Wunderground v.1.12,2013-07-29 14:46:00,
2013-07-29 10:52:00,69.6,66.9,29.96,NNE,13,0.0,0.0,91,0.00,,,0.01,Wunderground v.1.12,2013-07-29 14:52:00,
2013-07-29 10:58:00,69.6,66.9,29.96,NNE,13,0.0,0.0,91,0.00,,,0.01,Wunderground v.1.12,2013-07-29 14:58:00,
2013-07-29 11:04:00,69.4,66.3,29.96,NE,36,0.0,3.0,90,0.00,,,0.01,Wunderground v.1.12,2013-07-29 15:04:00,
2013-07-29 11:09:00,69.6,66.9,29.96,NE,36,0.0,0.0,91,0.00,,,0.01,Wunderground v.1.12,2013-07-29 15:09:00,
2013-07-29 11:15:00,69.9,66.8,29.96,NE,36,0.0,0.0,90,0.00,,,0.01,Wunderground v.1.12,2013-07-29 15:15:00,
2013-07-29 11:22:00,70.1,66.7,29.97,ENE,58,0.0,1.0,89,0.00,,,0.01,Wunderground v.1.12,2013-07-29 15:22:00,
2013-07-29 11:27:00,70.3,66.6,29.97,ENE,58,0.0,0.0,88,0.00,,,0.01,Wunderground v.1.12,2013-07-29 15:27:00,
2013-07-29 11:34:00,69.4,66.3,29.96,NNE,23,0.0,3.0,90,0.00,,,0.01,Wunderground v.1.12,2013-07-29 15:34:00,
2013-07-29 11:39:00,69.4,65.7,29.97,ENE,60,0.0,1.0,88,0.00,,,0.01,Wunderground v.1.12,2013-07-29 15:39:00,
2013-07-29 11:45:00,69.3,65.9,29.97,ENE,63,0.0,0.0,89,0.00,,,0.01,Wunderground v.1.12,2013-07-29 15:45:00,
2013-07-29 11:52:00,69.3,65.9,29.97,East,94,0.0,5.0,89,0.00,,,0.01,Wunderground v.1.12,2013-07-29 15:52:00,
2013-07-29 11:59:00,69.6,65.9,29.97,East,94,0.0,0.0,88,0.00,,,0.01,Wunderground v.1.12,2013-07-29 15:59:00,
2013-07-29 12:04:00,69.8,65.8,29.97,East,97,0.0,2.0,87,0.00,,,0.01,Wunderground v.1.12,2013-07-29 16:04:00,
2013-07-29 12:09:00,70.3,66.6,29.97,East,98,0.0,0.0,88,0.00,,,0.01,Wunderground v.1.12,2013-07-29 16:09:00,
2013-07-29 12:15:00,71.3,66.9,29.97,ESE,110,0.0,0.0,86,0.00,,,0.01,Wunderground v.1.12,2013-07-29 16:15:00,
2013-07-29 12:21:00,71.6,66.5,29.96,ESE,110,0.0,1.0,84,0.00,,,0.01,Wunderground v.1.12,2013-07-29 16:21:00,
2013-07-29 12:28:00,71.8,66.7,29.96,SSE,150,0.0,1.0,84,0.00,,,0.01,Wunderground v.1.12,2013-07-29 16:28:00,
2013-07-29 12:34:00,72.8,67.3,29.96,SSE,150,0.0,0.0,83,0.00,,,0.01,Wunderground v.1.12,2013-07-29 16:34:00,
2013-07-29 12:40:00,73.2,67.4,29.96,East,96,0.0,0.0,82,0.00,,,0.01,Wunderground v.1.12,2013-07-29 16:40:00,
2013-07-29 12:45:00,74.2,68.0,29.96,East,96,1.0,1.0,81,0.00,,,0.01,Wunderground v.1.12,2013-07-29 16:45:00,
2013-07-29 12:51:00,75.3,68.0,29.95,East,98,0.0,0.0,78,0.00,,,0.01,Wunderground v.1.12,2013-07-29 16:51:00,
2013-07-29 12:57:00,75.4,68.1,29.95,East,97,0.0,1.0,78,0.00,,,0.01,Wunderground v.1.12,2013-07-29 16:57:00,
2013-07-29 13:03:00,72.5,67.0,29.96,ESE,113,0.0,3.0,83,0.00,,,0.01,Wunderground v.1.12,2013-07-29 17:03:00,
2013-07-29 13:09:00,75.1,67.8,29.95,SSE,150,1.0,2.0,78,0.00,,,0.01,Wunderground v.1.12,2013-07-29 17:09:00,
2013-07-29 13:14:00,76.1,68.4,29.95,SSE,150,0.0,1.0,77,0.00,,,0.01,Wunderground v.1.12,2013-07-29 17:14:00,
2013-07-29 13:19:00,76.1,68.0,29.94,SSE,150,0.0,1.0,76,0.00,,,0.01,Wunderground v.1.12,2013-07-29 17:19:00,
2013-07-29 13:28:00,76.1,68.4,29.94,SE,125,0.0,1.0,77,0.00,,,0.01,Wunderground v.1.12,2013-07-29 17:28:00,
2013-07-29 13:33:00,74.9,67.9,29.95,East,90,1.0,6.0,79,0.00,,,0.01,Wunderground v.1.12,2013-07-29 17:33:00,
2013-07-29 13:39:00,74.9,67.9,29.94,East,89,1.0,1.0,79,0.00,,,0.01,Wunderground v.1.12,2013-07-29 17:39:00,
2013-07-29 13:44:00,75.1,68.1,29.94,ENE,69,1.0,4.0,79,0.00,,,0.01,Wunderground v.1.12,2013-07-29 17:44:00,
2013-07-29 13:49:00,75.1,68.1,29.95,East,101,1.0,1.0,79,0.00,,,0.01,Wunderground v.1.12,2013-07-29 17:49:00,
2013-07-29 13:54:00,74.4,67.1,29.95,East,94,2.0,4.0,78,0.00,,,0.01,Wunderground v.1.12,2013-07-29 17:54:00,
2013-07-29 14:00:00,73.3,66.8,29.95,East,94,2.0,2.0,80,0.00,,,0.01,Wunderground v.1.12,2013-07-29 18:00:00,
2013-07-29 14:07:00,73.7,67.1,29.94,ESE,107,1.0,3.0,80,0.00,,,0.01,Wunderground v.1.12,2013-07-29 18:07:00,
2013-07-29 14:14:00,74.4,68.2,29.94,ESE,109,0.0,1.0,81,0.00,,,0.01,Wunderground v.1.12,2013-07-29 18:14:00,
2013-07-29 14:22:00,74.7,67.4,29.94,East,100,1.0,1.0,78,0.00,,,0.01,Wunderground v.1.12,2013-07-29 18:22:00,
2013-07-29 14:29:00,74.0,67.4,29.94,East,85,1.0,2.0,80,0.00,,,0.01,Wunderground v.1.12,2013-07-29 18:29:00,
2013-07-29 14:34:00,74.0,67.4,29.93,East,84,1.0,1.0,80,0.00,,,0.01,Wunderground v.1.12,2013-07-29 18:34:00,
2013-07-29 14:39:00,74.2,67.6,29.93,East,84,0.0,1.0,80,0.00,,,0.01,Wunderground v.1.12,2013-07-29 18:39:00,
2013-07-29 14:45:00,73.7,67.1,29.93,East,84,0.0,0.0,80,0.00,,,0.01,Wunderground v.1.12,2013-07-29 18:45:00,
2013-07-29 14:52:00,72.7,66.9,29.93,SE,134,1.0,1.0,82,0.00,,,0.01,Wunderground v.1.12,2013-07-29 18:52:00,
2013-07-29 14:58:00,72.0,66.9,29.93,ENE,70,1.0,2.0,84,0.00,,,0.01,Wunderground v.1.12,2013-07-29 18:58:00,
2013-07-29 15:05:00,71.5,66.8,29.93,East,92,2.0,4.0,85,0.00,,,0.01,Wunderground v.1.12,2013-07-29 19:05:00,
2013-07-29 15:11:00,71.1,67.0,29.93,East,101,2.0,2.0,87,0.00,,,0.01,Wunderground v.1.12,2013-07-29 19:11:00,
2013-07-29 15:16:00,70.9,66.5,29.93,ESE,102,0.0,1.0,86,0.00,,,0.01,Wunderground v.1.12,2013-07-29 19:16:00,
2013-07-29 15:22:00,70.9,66.8,29.93,East,97,0.0,1.0,87,0.00,,,0.01,Wunderground v.1.12,2013-07-29 19:22:00,
2013-07-29 15:27:00,71.1,67.0,29.93,ESE,108,1.0,2.0,87,0.00,,,0.01,Wunderground v.1.12,2013-07-29 19:27:00,
2013-07-29 15:33:00,72.0,67.2,29.93,East,90,1.0,6.0,85,0.00,,,0.01,Wunderground v.1.12,2013-07-29 19:33:00,
2013-07-29 15:39:00,72.0,67.6,29.93,East,89,0.0,4.0,86,0.00,,,0.01,Wunderground v.1.12,2013-07-29 19:39:00,
2013-07-29 15:44:00,73.0,68.2,29.93,ENE,67,0.0,0.0,85,0.00,,,0.01,Wunderground v.1.12,2013-07-29 19:44:00,
2013-07-29 15:49:00,73.5,68.0,29.92,ESE,117,1.0,5.0,83,0.00,,,0.01,Wunderground v.1.12,2013-07-29 19:49:00,
2013-07-29 15:54:00,73.3,67.8,29.92,East,94,1.0,3.0,83,0.00,,,0.01,Wunderground v.1.12,2013-07-29 19:54:00,
2013-07-29 16:00:00,73.5,68.0,29.92,ENE,68,1.0,1.0,83,0.00,,,0.01,Wunderground v.1.12,2013-07-29 20:00:00,
2013-07-29 16:07:00,73.5,68.0,29.92,East,86,0.0,1.0,83,0.00,,,0.01,Wunderground v.1.12,2013-07-29 20:07:00,
2013-07-29 16:13:00,72.8,67.7,29.92,East,86,0.0,3.0,84,0.00,,,0.01,Wunderground v.1.12,2013-07-29 20:13:00,
2013-07-29 16:19:00,72.3,67.5,29.91,ESE,111,1.0,1.0,85,0.00,,,0.01,Wunderground v.1.12,2013-07-29 20:19:00,
2013-07-29 16:24:00,72.1,67.7,29.91,East,94,1.0,1.0,86,0.00,,,0.01,Wunderground v.1.12,2013-07-29 20:24:00,
2013-07-29 16:29:00,72.5,68.1,29.91,ESE,102,1.0,2.0,86,0.00,,,0.01,Wunderground v.1.12,2013-07-29 20:29:00,
2013-07-29 16:34:00,72.1,67.7,29.91,ENE,74,0.0,2.0,86,0.00,,,0.01,Wunderground v.1.12,2013-07-29 20:34:00,
2013-07-29 16:40:00,71.6,67.5,29.91,East,85,0.0,0.0,87,0.00,,,0.01,Wunderground v.1.12,2013-07-29 20:40:00,
2013-07-29 16:45:00,71.1,67.4,29.91,East,101,1.0,1.0,88,0.00,,,0.01,Wunderground v.1.12,2013-07-29 20:45:00,
2013-07-29 16:51:00,70.9,67.5,29.90,East,101,0.0,0.0,89,0.00,,,0.01,Wunderground v.1.12,2013-07-29 20:51:00,
2013-07-29 16:58:00,70.6,67.2,29.90,East,82,0.0,3.0,89,0.00,,,0.01,Wunderground v.1.12,2013-07-29 20:58:00,
2013-07-29 17:03:00,72.3,67.9,29.91,ESE,113,1.0,7.0,86,0.00,,,0.01,Wunderground v.1.12,2013-07-29 21:03:00,
2013-07-29 17:09:00,70.1,67.3,29.91,East,94,1.0,4.0,91,0.00,,,0.01,Wunderground v.1.12,2013-07-29 21:09:00,
2013-07-29 17:15:00,70.1,67.7,29.91,East,97,1.0,1.0,92,0.00,,,0.01,Wunderground v.1.12,2013-07-29 21:15:00,
2013-07-29 17:20:00,70.1,67.3,29.91,East,101,0.0,0.0,91,0.00,,,0.01,Wunderground v.1.12,2013-07-29 21:20:00,
2013-07-29 17:26:00,70.1,67.3,29.91,East,100,0.0,0.0,91,0.00,,,0.01,Wunderground v.1.12,2013-07-29 21:26:00,
2013-07-29 17:32:00,70.6,67.2,29.91,East,82,1.0,2.0,89,0.00,,,0.01,Wunderground v.1.12,2013-07-29 21:32:00,
2013-07-29 17:39:00,71.3,67.2,29.91,East,83,1.0,3.0,87,0.00,,,0.01,Wunderground v.1.12,2013-07-29 21:39:00,
2013-07-29 17:45:00,71.8,67.4,29.91,ESE,103,1.0,1.0,86,0.00,,,0.01,Wunderground v.1.12,2013-07-29 21:45:00,
2013-07-29 17:50:00,72.3,67.5,29.91,East,93,1.0,1.0,85,0.00,,,0.01,Wunderground v.1.12,2013-07-29 21:50:00,
2013-07-29 17:57:00,72.7,67.2,29.91,East,95,0.0,1.0,83,0.00,,,0.01,Wunderground v.1.12,2013-07-29 21:57:00,
2013-07-29 18:04:00,70.6,67.2,29.91,East,90,1.0,6.0,89,0.00,,,0.01,Wunderground v.1.12,2013-07-29 22:04:00,
2013-07-29 18:09:00,74.0,67.8,29.90,East,92,0.0,1.0,81,0.00,,,0.01,Wunderground v.1.12,2013-07-29 22:09:00,
2013-07-29 18:14:00,74.4,67.5,29.90,SE,134,0.0,1.0,79,0.00,,,0.01,Wunderground v.1.12,2013-07-29 22:14:00,
2013-07-29 18:19:00,74.6,67.7,29.88,East,95,0.0,0.0,79,0.00,,,0.01,Wunderground v.1.12,2013-07-29 22:19:00,
2013-07-29 18:25:00,74.4,67.1,29.88,ESE,105,1.0,1.0,78,0.00,,,0.01,Wunderground v.1.12,2013-07-29 22:25:00,
2013-07-29 18:30:00,74.7,67.0,29.88,South,190,1.0,3.0,77,0.00,,,0.01,Wunderground v.1.12,2013-07-29 22:30:00,
2013-07-29 18:35:00,74.9,67.2,29.88,SE,124,1.0,1.0,77,0.00,,,0.01,Wunderground v.1.12,2013-07-29 22:35:00,
2013-07-29 18:42:00,75.1,67.8,29.88,ESE,119,0.0,1.0,78,0.00,,,0.01,Wunderground v.1.12,2013-07-29 22:42:00,
2013-07-29 18:47:00,75.3,68.0,29.89,ESE,119,0.0,0.0,78,0.00,,,0.01,Wunderground v.1.12,2013-07-29 22:47:00,
2013-07-29 18:54:00,74.9,67.6,29.89,ESE,119,0.0,0.0,78,0.00,,,0.01,Wunderground v.1.12,2013-07-29 22:54:00,
2013-07-29 18:59:00,74.7,67.8,29.89,ESE,119,0.0,0.0,79,0.00,,,0.01,Wunderground v.1.12,2013-07-29 22:59:00,
2013-07-29 19:05:00,74.6,67.7,29.90,ESE,119,0.0,0.0,79,0.00,,,0.01,Wunderground v.1.12,2013-07-29 23:05:00,
2013-07-29 19:10:00,74.2,67.3,29.90,ESE,119,0.0,0.0,79,0.00,,,0.01,Wunderground v.1.12,2013-07-29 23:10:00,
2013-07-29 19:16:00,73.9,67.3,29.90,ESE,119,0.0,0.0,80,0.00,,,0.01,Wunderground v.1.12,2013-07-29 23:16:00,
2013-07-29 19:23:00,73.7,67.5,29.90,ESE,119,0.0,1.0,81,0.00,,,0.01,Wunderground v.1.12,2013-07-29 23:23:00,
2013-07-29 19:28:00,74.0,67.8,29.90,ESE,119,0.0,0.0,81,0.00,,,0.01,Wunderground v.1.12,2013-07-29 23:28:00,
2013-07-29 19:34:00,74.7,67.8,29.90,ESE,113,0.0,3.0,79,0.00,,,0.01,Wunderground v.1.12,2013-07-29 23:34:00,
2013-07-29 19:39:00,73.9,68.1,29.91,ESE,119,0.0,0.0,82,0.00,,,0.01,Wunderground v.1.12,2013-07-29 23:39:00,
2013-07-29 19:45:00,73.5,67.7,29.91,ESE,117,0.0,0.0,82,0.00,,,0.01,Wunderground v.1.12,2013-07-29 23:45:00,
2013-07-29 19:50:00,73.2,67.7,29.93,NW,320,0.0,2.0,83,0.00,,,0.01,Wunderground v.1.12,2013-07-29 23:50:00,
2013-07-29 19:57:00,72.8,67.3,29.93,NW,321,1.0,2.0,83,0.00,,,0.01,Wunderground v.1.12,2013-07-29 23:57:00,
2013-07-29 20:02:00,72.5,67.4,29.93,NNW,333,0.0,0.0,84,0.00,,,0.01,Wunderground v.1.12,2013-07-30 00:02:00,
2013-07-29 20:09:00,72.0,66.9,29.93,NNW,340,0.0,0.0,84,0.00,,,0.01,Wunderground v.1.12,2013-07-30 00:09:00,
2013-07-29 20:16:00,71.5,66.8,29.93,NNW,340,0.0,0.0,85,0.00,,,0.01,Wunderground v.1.12,2013-07-30 00:16:00,
2013-07-29 20:22:00,71.1,66.7,29.94,NNW,340,0.0,0.0,86,0.00,,,0.01,Wunderground v.1.12,2013-07-30 00:22:00,
2013-07-29 20:29:00,70.9,66.8,29.94,NNW,340,0.0,0.0,87,0.00,,,0.01,Wunderground v.1.12,2013-07-30 00:29:00,
2013-07-29 20:34:00,70.8,66.7,29.94,NNW,340,0.0,0.0,87,0.00,,,0.01,Wunderground v.1.12,2013-07-30 00:34:00,
2013-07-29 20:39:00,70.6,66.9,29.94,NNW,340,0.0,0.0,88,0.00,,,0.01,Wunderground v.1.12,2013-07-30 00:39:00,
2013-07-29 20:44:00,70.4,66.7,29.94,NNW,340,0.0,0.0,88,0.00,,,0.01,Wunderground v.1.12,2013-07-30 00:44:00,
2013-07-29 20:50:00,70.3,66.9,29.94,NNW,340,0.0,0.0,89,0.00,,,0.01,Wunderground v.1.12,2013-07-30 00:50:00,
2013-07-29 20:55:00,69.9,66.5,29.94,NNW,340,0.0,0.0,89,0.00,,,0.01,Wunderground v.1.12,2013-07-30 00:55:00,
2013-07-29 21:00:00,69.9,66.8,29.94,NNW,340,0.0,0.0,90,0.00,,,0.01,Wunderground v.1.12,2013-07-30 01:00:00,
2013-07-29 21:06:00,69.8,66.7,29.94,NNW,340,0.0,0.0,90,0.00,,,0.01,Wunderground v.1.12,2013-07-30 01:06:00,
2013-07-29 21:11:00,69.6,66.9,29.94,NNW,340,0.0,0.0,91,0.00,,,0.01,Wunderground v.1.12,2013-07-30 01:11:00,
2013-07-29 21:18:00,69.4,66.7,29.94,NNW,340,0.0,0.0,91,0.00,,,0.01,Wunderground v.1.12,2013-07-30 01:18:00,
2013-07-29 21:24:00,69.3,66.6,29.94,NNW,340,0.0,0.0,91,0.00,,,0.01,Wunderground v.1.12,2013-07-30 01:24:00,
2013-07-29 21:29:00,69.3,66.9,29.94,NNW,340,0.0,0.0,92,0.00,,,0.01,Wunderground v.1.12,2013-07-30 01:29:00,
2013-07-29 21:34:00,69.1,66.7,29.94,NNW,340,0.0,0.0,92,0.00,,,0.01,Wunderground v.1.12,2013-07-30 01:34:00,
2013-07-29 21:40:00,69.1,67.0,29.94,NNW,340,0.0,0.0,93,0.00,,,0.01,Wunderground v.1.12,2013-07-30 01:40:00,
2013-07-29 21:45:00,69.1,67.0,29.94,NNW,340,0.0,0.0,93,0.00,,,0.01,Wunderground v.1.12,2013-07-30 01:45:00,
2013-07-29 21:51:00,69.1,67.0,29.95,NNW,340,0.0,0.0,93,0.00,,,0.01,Wunderground v.1.12,2013-07-30 01:51:00,
2013-07-29 21:57:00,69.1,67.3,29.95,NNW,340,0.0,0.0,94,0.00,,,0.01,Wunderground v.1.12,2013-07-30 01:57:00,
2013-07-29 22:03:00,69.1,66.7,29.94,NNW,338,0.0,1.0,92,0.00,,,0.01,Wunderground v.1.12,2013-07-30 02:03:00,
2013-07-29 22:12:00,68.9,67.1,29.95,NNW,340,0.0,0.0,94,0.00,,,0.01,Wunderground v.1.12,2013-07-30 02:12:00,
2013-07-29 22:19:00,69.1,67.6,29.96,NNW,340,0.0,0.0,95,0.00,,,0.01,Wunderground v.1.12,2013-07-30 02:19:00,
2013-07-29 22:24:00,68.9,67.4,29.96,WNW,300,1.0,5.0,95,0.00,,,0.01,Wunderground v.1.12,2013-07-30 02:24:00,
2013-07-29 22:30:00,68.9,67.4,29.96,NNW,327,1.0,2.0,95,0.00,,,0.01,Wunderground v.1.12,2013-07-30 02:30:00,
2013-07-29 22:35:00,68.9,67.4,29.96,NNW,344,0.0,1.0,95,0.00,,,0.01,Wunderground v.1.12,2013-07-30 02:35:00,
2013-07-29 22:41:00,68.9,67.4,29.96,NNW,344,0.0,0.0,95,0.00,,,0.01,Wunderground v.1.12,2013-07-30 02:41:00,
2013-07-29 22:47:00,68.8,67.3,29.96,NNW,344,0.0,0.0,95,0.00,,,0.01,Wunderground v.1.12,2013-07-30 02:47:00,
2013-07-29 22:52:00,68.6,67.1,29.96,NNW,344,0.0,0.0,95,0.00,,,0.01,Wunderground v.1.12,2013-07-30 02:52:00,
2013-07-29 22:58:00,68.4,66.9,29.96,NNW,344,0.0,0.0,95,0.00,,,0.01,Wunderground v.1.12,2013-07-30 02:58:00,
2013-07-29 23:03:00,68.9,67.4,29.96,NNW,338,1.0,6.0,95,0.00,,,0.01,Wunderground v.1.12,2013-07-30 03:03:00,
2013-07-29 23:09:00,68.4,66.9,29.95,NNW,344,0.0,0.0,95,0.00,,,0.00,Wunderground v.1.12,2013-07-30 03:09:00,
2013-07-29 23:15:00,68.1,66.6,29.95,NNW,344,0.0,0.0,95,0.00,,,0.00,Wunderground v.1.12,2013-07-30 03:15:00,
2013-07-29 23:21:00,68.1,66.6,29.95,NNW,344,0.0,0.0,95,0.00,,,0.00,Wunderground v.1.12,2013-07-30 03:21:00,
2013-07-29 23:28:00,67.8,66.3,29.95,NNW,344,0.0,0.0,95,0.00,,,0.00,Wunderground v.1.12,2013-07-30 03:28:00,
2013-07-29 23:33:00,67.4,65.9,29.96,N/A,-737280,0.0,0.0,95,0.00,,,0.00,Wunderground v.1.12,2013-07-30 03:33:00,
2013-07-29 23:39:00,66.9,65.4,29.96,NNW,344,0.0,0.0,95,0.00,,,0.00,Wunderground v.1.12,2013-07-30 03:39:00,
2013-07-29 23:44:00,66.9,65.7,29.96,NNW,344,0.0,0.0,96,0.00,,,0.00,Wunderground v.1.12,2013-07-30 03:44:00,
2013-07-29 23:49:00,66.9,65.7,29.96,NNW,344,0.0,0.0,96,0.00,,,0.00,Wunderground v.1.12,2013-07-30 03:49:00,
2013-07-29 23:55:00,66.8,65.6,29.96,NNW,344,0.0,0.0,96,0.00,,,0.00,Wunderground v.1.12,2013-07-30 03:55:00,